Temp
79 82 74 75 75 75 75 74 75 75 76 76 77 77 77 76 76 76 76 76 77 78 79 79 78 78 78 78 77 76 76 75 76 76 77 77 78 78 77 76 77 83 76
81 81 73 74 75 75 75 75 75 75 76 76 76 76 76 76 76 76 76 76 77 78 78 78 78 78 77 76 75 75 75 75 75 75 77 77 77 77 77 75 77 80 76
81 80 79 74 75 75 75 75 75 76 76 76 76 76 76 76 75 75 75 76 77 78 78 78 78 78 77 75 74 74 74 74 74 74 76 85 83 77 77 75 75 75 76
82 81 80 73 74 75 75 75 75 76 76 76 76 76 75 75 75 75 75 75 77 78 78 78 78 77 75 74 74 74 74 74 73 74 84 85 84 76 77 76 76 76 76
82 82 80 73 74 74 74 75 75 75 75 75 75 76 75 75 75 75 75 75 77 78 78 78 77 75 74 73 73 73 73 73 73 79 84 83 84 79 77 76 75 75 75
81 82 75 72 73 74 74 74 74 74 74 74 74 75 75 76 75 75 74 75 77 77 77 77 75 74 72 72 72 73 73 73 73 84 83 80 83 77 76 75 74 74 74
80 81 79 72 73 74 75 74 74 74 73 74 74 74 75 75 75 74 74 75 76 76 76 75 74 73 72 72 72 72 72 72 84 84 83 82 82 76 76 75 74 74 73
79 79 79 74 73 73 74 73 73 73 73 73 73 74 74 74 74 74 74 74 74 74 73 73 72 72 72 72 72 71 71 72 81 84 83 83 77 76 76 75 73 73 73
79 78 78 78 76 71 71 71 71 72 72 73 72 73 73 72 72 73 73 73 73 73 73 72 72 72 72 71 71 70 70 71 85 85 83 83 74 76 76 74 73 73 73
76 77 77 76 77 78 78 70 71 71 71 72 72 72 71 72 72 73 72 73 73 72 72 72 71 71 71 70 70 70 68 70 84 84 84 84 74 77 76 75 74 73 72
75 76 76 76 76 76 78 77 72 71 71 71 72 71 71 81 79 77 74 71 72 71 71 71 71 70 70 70 70 69 69 83 83 84 85 71 74 77 77 75 74 73 72
74 71 76 76 76 75 78 78 78 79 79 79 79 78 80 78 79 79 75 70 70 70 70 70 70 69 70 80 79 71 83 81 82 83 84 70 74 77 76 74 73 72 72
78 75 76 76 75 75 77 78 76 78 79 78 78 78 78 77 77 79 78 77 78 72 79 76 75 79 78 79 79 79 79 79 83 83 78 70 74 76 76 74 73 73 72
76 77 77 78 76 76 77 76 76 75 76 77 78 77 77 77 76 77 78 76 75 78 77 77 79 76 76 77 77 76 77 79 80 81 77 69 72 75 75 75 74 72 72
77 78 76 76 76 76 74 74 76 76 76 77 76 76 77 77 75 77 74 76 73 72 77 76 76 76 75 75 75 75 75 76 77 80 81 68 69 72 74 74 73 72 71
78 79 77 75 76 77 73 73 75 77 76 77 77 75 74 78 77 77 74 74 71 70 74 77 76 73 74 72 72 73 74 73 72 76 79 77 67 69 71 72 72 71 70
81 80 76 75 75 74 75 74 76 75 74 76 78 75 74 75 75 76 75 71 72 71 73 74 73 73 73 72 71 71 70 70 70 71 75 77 72 65 67 69 70 69 68
83 80 78 77 74 74 75 74 77 77 76 78 78 77 73 72 73 74 74 75 74 69 72 74 73 72 69 69 71 66 67 68 68 69 74 74 72 69 65 66 67 67 68
83 81 78 76 74 73 74 74 75 76 77 78 78 76 73 71 72 74 75 74 74 70 69 72 69 70 70 65 69 65 65 66 68 69 69 68 69 68 67 64 64 65 66
78 78 79 76 75 73 73 72 73 74 76 77 74 73 72 71 70 72 73 73 73 73 68 69 68 69 68 70 67 62 62 63 64 64 64 67 66 65 66 65 64 65 64
73 73 76 74 73 73 70 68 67 67 69 71 71 71 70 70 69 71 72 71 72 72 70 68 68 66 60 62 57 57 57 58 58 58 58 59 60 61 65 66 62 64 67
69 70 75 74 71 73 73 72 72 70 68 68 67 69 71 72 71 71 71 70 70 70 70 67 65 61 60 61 58 57 52 54 55 55 54 55 56 58 59 59 61 63 66
65 68 73 72 70 72 72 67 66 67 66 64 66 66 68 71 72 72 72 71 69 68 68 67 66 63 58 59 61 57 52 52 52 53 53 52 53 54 54 54 54 54 57
65 68 71 70 70 70 67 68 66 68 66 66 66 63 63 65 66 67 68 68 68 67 67 67 65 64 61 57 58 57 57 57 52 48 50 50 50 48 47 49 49 52 54
65 66 67 68 68 66 68 68 67 67 69 65 63 63 60 59 59 59 61 62 62 62 63 63 60 61 61 59 58 56 55 54 53 50 45 47 48 47 47 47 48 49 50
64 64 65 65 64 67 69 70 69 65 62 62 61 61 59 58 58 59 58 59 60 60 59 60 60 60 60 60 59 57 56 54 51 52 48 46 45 46 46 47 47 47 48
MSLP
1012.92 1013.18 1013.85 1014.06 1014.25 1014.56 1014.66 1015.14 1015.30 1015.48 1015.62 1015.94 1016.29 1016.60 1016.96 1017.39 1017.56 1017.73 1017.93 1018.14 1018.60 1018.72 1018.72 1018.93 1019.09 1019.21 1019.38 1019.52 1019.74 1019.94 1020.11 1020.23 1020.33 1020.42 1020.50 1020.63 1020.77 1020.96 1021.10 1021.13 1020.96 1020.96 1021.38
1012.30 1013.18 1013.83 1014.12 1014.33 1014.57 1014.81 1015.18 1015.48 1015.70 1015.99 1016.32 1016.59 1016.88 1017.26 1017.48 1017.93 1018.03 1018.11 1018.19 1018.40 1018.82 1019.13 1019.32 1019.44 1019.60 1019.76 1019.96 1020.13 1020.31 1020.41 1020.57 1020.68 1020.76 1020.82 1020.97 1021.08 1021.23 1021.37 1021.46 1021.38 1021.56 1021.72
1012.54 1013.28 1014.01 1014.40 1014.55 1014.65 1014.87 1015.20 1015.59 1015.94 1016.30 1016.61 1016.85 1017.10 1017.45 1017.66 1017.94 1018.43 1018.42 1018.42 1018.43 1018.74 1019.21 1019.45 1019.82 1020.14 1020.26 1020.44 1020.58 1020.77 1020.91 1021.01 1021.10 1021.17 1021.16 1020.92 1021.23 1021.68 1021.77 1021.84 1021.93 1022.04 1022.06
1012.58 1013.41 1013.99 1014.43 1014.54 1014.82 1014.99 1015.26 1015.62 1016.03 1016.43 1016.78 1017.09 1017.41 1017.66 1018.01 1018.27 1018.60 1018.72 1018.65 1018.64 1018.85 1019.21 1019.50 1019.84 1020.28 1020.68 1020.85 1020.99 1021.11 1021.19 1021.28 1021.40 1021.57 1021.20 1021.25 1021.55 1022.03 1022.11 1022.17 1022.20 1022.25 1022.33
1012.70 1013.32 1013.83 1014.43 1014.70 1014.88 1015.24 1015.48 1015.68 1016.14 1016.53 1016.90 1017.30 1017.68 1017.89 1018.29 1018.59 1018.70 1018.98 1018.90 1018.88 1019.03 1019.34 1019.73 1020.13 1020.39 1020.75 1021.08 1021.28 1021.36 1021.51 1021.58 1021.68 1021.43 1021.41 1021.56 1021.69 1022.24 1022.40 1022.47 1022.64 1022.68 1022.48
1012.77 1013.19 1013.94 1014.41 1014.69 1014.91 1015.20 1015.56 1015.77 1016.13 1016.57 1017.06 1017.42 1017.77 1018.07 1018.42 1018.76 1018.99 1019.11 1019.15 1019.13 1019.22 1019.56 1019.91 1020.34 1020.63 1020.70 1020.89 1021.20 1021.40 1021.48 1021.60 1021.66 1021.30 1021.56 1021.97 1021.85 1022.42 1022.60 1022.78 1022.92 1023.10 1023.14
1012.77 1013.19 1013.90 1014.41 1014.66 1014.93 1015.25 1015.56 1015.85 1016.13 1016.58 1017.02 1017.45 1017.79 1018.14 1018.51 1018.82 1019.16 1019.28 1019.51 1019.65 1019.72 1019.97 1020.16 1020.45 1020.62 1020.92 1021.06 1021.18 1021.41 1021.51 1021.58 1021.23 1021.27 1021.57 1021.83 1022.07 1022.55 1022.83 1022.99 1023.10 1023.27 1023.38
1012.66 1013.27 1013.86 1014.45 1014.71 1014.91 1015.24 1015.62 1016.02 1016.34 1016.50 1016.86 1017.33 1017.82 1018.25 1018.62 1018.96 1019.26 1019.51 1019.69 1019.96 1020.07 1020.20 1020.47 1020.74 1021.01 1021.04 1021.16 1021.34 1021.46 1021.54 1021.57 1021.36 1021.22 1021.45 1021.75 1022.14 1022.34 1022.59 1023.00 1023.41 1023.59 1023.68
1012.88 1013.38 1013.76 1014.31 1014.78 1015.07 1015.29 1015.63 1016.03 1016.37 1016.66 1016.93 1017.26 1017.74 1018.27 1018.67 1019.08 1019.43 1019.62 1019.86 1020.12 1020.36 1020.55 1020.78 1021.02 1021.17 1021.40 1021.46 1021.50 1021.57 1021.54 1021.54 1021.15 1021.09 1021.34 1021.63 1022.24 1022.43 1022.60 1022.96 1023.12 1023.47 1023.68
1013.20 1013.41 1013.71 1014.33 1014.69 1015.01 1015.40 1015.60 1015.83 1016.28 1016.70 1017.04 1017.43 1017.86 1018.42 1018.80 1019.14 1019.38 1019.75 1020.02 1020.36 1020.56 1020.77 1020.92 1021.02 1021.20 1021.37 1021.42 1021.44 1021.45 1021.60 1021.63 1021.27 1021.26 1021.34 1021.43 1022.15 1022.24 1022.39 1022.76 1023.13 1023.43 1023.72
1013.23 1013.42 1013.59 1014.04 1014.54 1014.96 1015.30 1015.62 1015.92 1016.28 1016.78 1017.26 1017.63 1018.02 1018.52 1018.72 1019.19 1019.56 1019.75 1020.08 1020.37 1020.72 1020.84 1020.98 1021.14 1021.25 1021.45 1021.56 1021.51 1021.47 1021.37 1020.99 1021.03 1021.09 1021.22 1021.93 1022.21 1022.27 1022.50 1022.75 1022.92 1023.21 1023.57
1012.59 1013.22 1013.39 1013.67 1014.12 1014.70 1014.95 1015.43 1015.86 1016.35 1016.71 1017.08 1017.44 1017.86 1018.04 1018.58 1018.99 1019.35 1019.84 1020.23 1020.36 1020.57 1020.92 1021.12 1021.26 1021.42 1021.57 1021.41 1021.57 1021.76 1021.23 1021.32 1021.25 1021.22 1021.31 1021.96 1022.17 1022.37 1022.61 1022.91 1023.11 1023.31 1023.57
1011.91 1012.62 1012.94 1013.29 1013.77 1014.11 1014.36 1014.99 1015.58 1015.90 1016.34 1016.75 1017.11 1017.53 1017.95 1018.34 1018.78 1019.11 1019.39 1019.85 1020.14 1020.48 1020.51 1020.92 1021.25 1021.20 1021.15 1021.19 1021.48 1021.55 1021.46 1021.50 1021.38 1021.43 1021.55 1021.97 1022.13 1022.27 1022.59 1022.97 1023.25 1023.45 1023.61
1011.26 1011.65 1012.39 1012.80 1013.23 1013.49 1014.15 1014.53 1014.96 1015.47 1015.98 1016.29 1016.79 1017.31 1017.65 1017.98 1018.39 1018.64 1018.94 1019.50 1019.81 1020.02 1020.24 1020.63 1020.83 1021.30 1021.37 1021.28 1021.38 1021.50 1021.52 1021.35 1021.36 1021.46 1021.65 1021.96 1022.05 1022.22 1022.69 1022.92 1023.26 1023.50 1023.83
1010.65 1010.98 1011.63 1012.25 1012.71 1013.14 1013.79 1014.14 1014.42 1014.75 1015.27 1015.61 1016.34 1016.87 1017.21 1017.57 1018.00 1018.28 1018.91 1019.24 1019.96 1020.23 1020.18 1020.25 1020.57 1020.92 1021.26 1021.41 1021.43 1021.46 1021.46 1021.54 1021.50 1021.35 1021.43 1021.97 1022.08 1022.28 1022.52 1022.88 1023.44 1023.75 1024.15
1010.06 1010.47 1011.28 1011.78 1012.18 1012.64 1013.26 1013.66 1014.00 1014.46 1014.86 1015.35 1015.73 1016.39 1016.99 1017.25 1017.62 1018.11 1018.79 1019.32 1019.78 1020.26 1020.22 1020.31 1020.23 1020.64 1020.87 1021.30 1021.50 1021.56 1021.50 1021.78 1021.94 1021.68 1021.64 1021.94 1022.29 1022.40 1022.77 1023.13 1023.53 1024.06 1024.46
1008.93 1009.76 1010.29 1010.95 1011.61 1012.12 1012.66 1013.23 1013.56 1014.10 1014.82 1014.92 1015.22 1015.89 1016.70 1017.18 1017.58 1017.97 1018.53 1019.19 1019.48 1019.95 1020.07 1020.18 1020.62 1020.72 1020.93 1021.26 1021.44 1021.75 1021.93 1022.00 1022.01 1022.05 1021.91 1021.92 1022.38 1022.60 1022.68 1022.98 1023.42 1023.92 1024.51
1008.21 1008.46 1009.29 1010.03 1010.80 1011.56 1012.10 1012.77 1013.04 1013.59 1014.22 1014.60 1014.84 1015.49 1016.17 1016.77 1017.15 1017.60 1017.97 1018.27 1018.73 1019.37 1019.62 1019.70 1020.07 1020.53 1020.83 1021.04 1021.24 1021.83 1021.91 1022.06 1022.09 1022.05 1021.88 1022.17 1022.47 1022.77 1023.15 1023.28 1023.45 1023.91 1024.46
1007.64 1007.88 1008.40 1009.14 1009.81 1010.83 1011.58 1012.33 1012.70 1013.09 1013.46 1014.05 1014.38 1015.05 1015.93 1016.48 1016.82 1017.09 1017.36 1017.77 1018.40 1019.06 1019.41 1019.60 1020.04 1020.42 1020.67 1021.19 1021.39 1021.85 1022.00 1021.87 1022.02 1022.10 1022.19 1022.34 1022.43 1022.68 1023.04 1023.35 1023.53 1023.79 1024.04
1007.57 1007.64 1007.80 1008.48 1009.09 1010.19 1011.15 1012.02 1012.58 1013.02 1013.22 1013.58 1014.06 1014.61 1015.29 1015.94 1016.52 1016.79 1017.12 1017.50 1017.98 1018.40 1018.95 1019.23 1019.62 1020.09 1020.36 1020.67 1021.39 1021.97 1022.17 1022.19 1022.31 1022.49 1022.42 1022.38 1022.51 1022.95 1023.04 1023.53 1023.65 1023.74 1023.99
1007.24 1007.16 1007.45 1008.05 1008.63 1009.54 1010.38 1011.16 1012.07 1012.40 1013.19 1013.59 1013.88 1014.38 1015.09 1015.49 1016.09 1016.32 1016.59 1017.02 1017.44 1017.81 1018.33 1018.75 1019.06 1019.55 1020.32 1020.84 1021.42 1021.94 1022.14 1022.23 1022.32 1022.54 1022.60 1022.35 1022.34 1022.42 1023.10 1023.08 1023.53 1023.65 1024.23
1007.07 1006.90 1007.01 1007.63 1008.48 1009.28 1010.06 1010.85 1011.65 1012.26 1012.95 1013.51 1014.00 1014.33 1014.51 1014.87 1015.34 1015.70 1016.00 1016.55 1016.97 1017.40 1017.86 1018.29 1018.91 1019.60 1020.22 1020.50 1020.87 1021.62 1022.18 1022.92 1022.88 1022.73 1023.01 1022.93 1022.46 1022.85 1023.40 1023.77 1023.64 1023.96 1023.93
1007.22 1006.76 1006.80 1007.34 1008.36 1009.09 1009.84 1010.81 1011.65 1012.45 1013.14 1013.63 1013.79 1014.05 1014.22 1014.49 1014.77 1015.21 1015.64 1015.96 1016.40 1016.81 1017.11 1017.69 1018.32 1018.78 1019.43 1019.88 1020.18 1020.59 1021.69 1021.38 1022.58 1023.01 1023.42 1023.89 1023.04 1023.99 1023.69 1023.94 1024.32 1024.49 1024.65
1007.34 1007.02 1007.08 1007.51 1008.17 1009.00 1009.77 1010.50 1011.09 1011.61 1012.36 1012.87 1013.21 1013.85 1014.33 1014.45 1014.66 1015.04 1015.30 1015.58 1015.96 1016.41 1016.69 1016.89 1017.36 1017.75 1018.44 1019.11 1019.87 1020.12 1020.39 1020.64 1021.58 1022.92 1023.66 1023.79 1023.78 1024.54 1025.05 1024.46 1024.73 1024.48 1024.62
1007.80 1007.56 1007.57 1007.81 1008.31 1009.01 1009.70 1010.33 1010.80 1011.55 1012.13 1012.64 1013.13 1013.73 1014.34 1014.68 1014.86 1015.18 1015.49 1015.69 1016.08 1016.22 1016.46 1016.83 1017.10 1017.44 1017.81 1018.27 1018.75 1019.46 1020.04 1020.35 1020.66 1021.53 1022.77 1024.03 1024.17 1024.52 1025.00 1025.51 1025.51 1025.67 1025.72
1008.24 1008.13 1007.99 1008.14 1008.73 1009.27 1009.63 1010.05 1010.50 1011.26 1012.09 1012.53 1013.15 1013.58 1014.24 1014.77 1014.92 1015.13 1015.50 1015.66 1015.97 1016.14 1016.31 1016.50 1016.80 1017.13 1017.38 1017.52 1017.66 1018.00 1018.44 1019.20 1019.76 1020.47 1021.78 1022.89 1023.58 1024.80 1025.14 1025.50 1025.76 1026.02 1026.13
Wind_Speed
12 16 15 13 11 12 16 14 14 16 18 19 19 18 17 16 15 15 15 14 11 12 16 17 16 17 17 18 17 15 14 12 12 13 14 14 15 14 14 12 12 15 14
18 17 16 14 13 14 17 15 15 16 17 18 18 17 16 16 14 14 15 15 15 14 15 16 15 16 17 17 15 14 12 11 11 13 13 14 13 13 14 11 9 13 13
19 17 18 15 14 14 16 16 16 16 16 16 17 17 16 16 15 13 14 14 16 17 17 17 16 16 16 14 13 12 11 11 9 12 8 9 11 12 12 11 12 11 12
17 16 17 15 16 15 15 16 16 17 17 16 16 16 16 15 15 13 12 14 16 17 18 18 18 17 14 12 11 10 11 11 11 8 7 8 10 11 11 11 11 11 11
16 16 16 17 17 17 15 15 16 16 15 15 16 16 16 15 15 14 12 13 16 17 18 18 18 17 13 11 10 10 10 10 9 6 8 7 7 9 10 11 10 10 8
15 16 17 16 17 18 17 16 16 16 15 14 15 15 15 15 14 13 11 12 15 17 18 18 17 14 13 13 11 10 9 8 6 7 6 8 6 10 10 8 8 9 9
15 14 17 15 16 17 18 17 17 17 16 16 15 15 15 14 14 12 10 10 12 15 15 16 15 14 11 11 11 9 8 7 5 5 6 7 7 10 10 9 9 8 9
15 14 14 14 14 15 16 16 16 16 17 16 15 15 14 13 12 11 10 10 10 12 13 13 12 11 10 9 9 8 6 4 5 4 7 8 10 13 12 11 8 8 9
12 13 13 13 13 11 13 13 13 14 15 15 14 13 12 12 11 11 11 10 11 11 11 11 10 10 9 7 6 5 3 1 2 4 7 7 11 12 13 13 12 10 10
10 11 12 12 12 12 13 12 14 13 13 14 14 13 11 11 11 11 10 10 10 10 11 10 10 10 9 8 5 5 5 3 3 5 5 6 12 12 15 14 14 12 11
9 11 11 12 13 11 11 11 12 12 13 11 12 12 12 9 10 11 7 10 10 9 10 10 10 9 8 7 6 4 4 3 6 4 4 8 9 10 13 13 13 13 13
14 13 12 13 13 12 10 11 12 11 11 11 12 13 10 10 9 8 8 8 9 9 9 10 9 9 7 4 4 4 3 3 3 4 4 8 9 10 12 11 11 11 13
13 12 15 14 13 14 12 10 7 7 8 9 13 12 10 9 9 8 7 7 7 9 6 8 8 5 5 4 4 3 4 5 3 3 5 8 9 10 11 11 13 13 13
16 17 16 16 15 15 9 10 9 9 9 8 10 13 9 7 9 9 7 8 8 6 7 6 4 4 4 4 5 5 5 4 4 3 5 7 8 10 13 13 13 12 13
15 16 18 16 15 14 12 9 11 11 10 11 10 12 10 10 9 9 7 7 6 6 6 6 5 5 4 4 4 4 5 5 5 4 4 6 8 11 12 12 10 13 18
14 15 15 17 16 15 13 13 10 9 11 11 11 10 12 10 9 9 8 7 6 5 6 6 6 5 5 4 4 5 6 5 5 5 4 5 6 8 11 13 17 21 23
16 14 18 18 18 17 17 14 11 10 8 11 11 13 12 11 9 10 7 8 7 7 9 7 5 4 4 4 5 4 5 6 5 6 5 5 8 10 15 20 22 23 21
15 18 17 15 18 18 16 12 11 11 11 11 10 10 11 10 11 11 9 9 9 7 8 7 7 6 5 5 5 5 5 6 7 8 8 8 8 9 11 18 20 20 19
13 15 17 18 19 18 16 11 12 13 11 10 10 9 9 9 11 11 9 9 9 7 7 7 6 6 6 4 5 4 4 6 7 6 9 9 11 10 8 15 18 18 20
10 14 15 15 17 17 12 10 8 9 9 9 8 7 10 8 9 11 9 9 9 8 7 7 8 7 4 6 5 4 3 3 4 5 8 8 10 9 11 11 9 10 17
11 12 16 16 16 14 12 11 9 11 7 8 7 9 9 8 9 12 9 9 9 9 10 9 7 8 2 6 5 3 2 2 3 2 2 6 9 8 11 12 7 8 10
9 9 13 14 15 13 10 10 6 7 5 5 5 7 11 13 12 11 11 9 10 8 9 9 8 3 3 8 3 1 3 0 1 2 2 1 6 5 9 7 7 9 10
6 5 12 13 14 13 13 8 6 7 4 3 6 6 7 10 10 11 11 9 10 9 8 9 9 10 6 7 5 3 3 4 3 1 1 4 5 2 4 6 6 6 6
6 3 9 12 14 12 14 11 13 8 7 5 4 4 4 4 4 5 6 8 8 6 8 8 8 7 6 7 4 2 1 3 3 3 1 3 6 6 7 3 6 6 7
3 4 7 11 12 12 12 11 8 7 5 4 4 7 4 4 4 3 2 3 4 3 5 5 4 6 7 5 5 3 1 2 3 3 5 4 4 5 6 3 3 5 6
3 5 7 9 7 10 10 11 11 10 7 6 5 5 4 2 2 3 2 2 3 4 4 4 5 8 8 7 8 7 8 6 5 5 3 4 6 3 3 4 4 3 4
Wind_Direction
164 157 154 158 144 128 114 113 117 119 120 124 126 127 127 125 122 119 115 111 107 106 107 105 103 108 110 111 108 103 102 99 103 101 96 97 97 94 96 99 118 102 95
149 157 155 155 145 131 124 123 121 121 123 125 127 128 126 125 124 123 122 122 120 113 107 108 109 111 112 114 109 107 104 101 103 107 107 104 102 99 98 86 84 99 98
147 155 158 152 146 138 131 129 127 126 126 129 129 128 128 129 127 127 129 126 123 120 118 116 112 111 112 107 105 102 98 98 98 88 98 106 107 104 100 92 96 97 96
148 154 158 156 149 144 139 135 131 132 134 133 131 130 130 131 130 134 134 131 126 122 123 120 117 112 106 100 100 100 97 93 92 118 112 110 115 116 115 108 104 102 105
155 157 158 155 152 149 147 143 139 138 136 135 132 133 134 138 140 137 138 133 129 127 127 123 120 117 107 104 108 108 99 99 97 135 110 115 120 121 121 117 120 107 84
160 163 154 153 155 154 152 150 147 143 141 139 139 141 142 143 143 139 138 140 135 128 127 127 126 122 126 129 129 128 133 132 165 123 126 123 128 129 127 111 98 98 89
166 168 161 155 158 156 155 155 152 149 146 147 147 148 148 147 144 140 137 134 130 127 129 130 132 133 133 137 136 139 144 142 169 150 157 151 141 143 133 129 117 116 108
166 167 161 161 163 160 160 158 154 153 152 150 149 148 149 145 145 141 137 132 130 129 132 131 132 132 135 141 138 138 147 168 180 162 172 169 152 155 146 136 118 115 116
165 165 167 174 175 167 162 157 157 158 156 154 151 148 147 145 147 145 145 142 137 133 131 131 132 131 129 129 126 123 119 151 191 149 159 166 167 163 150 149 148 143 135
167 169 172 176 185 184 178 167 164 162 162 158 153 149 147 150 154 153 150 146 142 140 139 142 140 136 139 149 141 124 100 119 182 157 162 160 170 180 161 161 151 152 146
177 182 177 179 188 187 190 184 168 165 162 159 152 149 150 168 169 165 154 152 151 152 150 148 144 144 144 149 152 141 171 156 169 177 176 147 184 178 159 160 156 153 146
189 190 188 185 184 188 192 188 188 181 181 179 178 175 171 169 173 177 167 165 161 160 164 154 153 144 168 167 156 158 180 165 188 180 184 169 185 168 161 161 152 152 140
196 189 194 187 186 189 192 187 186 188 185 186 183 179 178 171 173 181 174 179 180 179 178 178 163 189 177 174 165 180 165 180 174 174 150 174 183 170 160 148 143 147 155
194 198 194 191 188 192 189 191 187 186 187 188 189 185 181 179 182 184 188 185 188 188 181 189 186 173 188 183 165 160 169 168 160 151 144 180 172 149 148 152 166 169 133
206 200 198 192 192 188 192 186 193 194 190 188 186 193 192 190 191 186 188 187 197 188 198 187 187 182 192 203 197 196 181 172 162 157 149 140 146 144 152 154 162 136 120
220 208 198 199 194 191 193 192 194 193 190 191 190 192 194 198 196 193 187 192 179 198 201 215 194 187 191 183 202 203 191 175 177 172 157 142 133 133 141 134 128 119 111
228 209 202 198 194 194 195 194 192 188 188 195 194 193 191 206 202 197 189 191 200 197 205 202 209 199 193 180 198 179 179 178 167 160 158 149 131 114 131 131 127 128 132
232 214 201 195 192 196 195 190 192 190 190 200 195 193 186 197 198 194 193 197 193 191 205 202 202 204 204 191 181 183 183 178 168 167 164 152 141 138 124 137 140 136 134
236 223 209 194 192 192 191 188 194 193 193 197 192 195 189 192 205 206 204 203 189 196 201 205 202 211 204 183 190 174 185 184 185 174 175 160 157 154 145 142 142 144 148
260 236 212 195 189 184 179 181 187 190 195 195 191 190 191 189 201 206 210 204 196 201 203 200 203 208 199 200 172 147 155 167 183 187 176 170 164 160 151 157 153 151 148
255 228 215 197 185 172 178 175 186 194 187 200 195 188 193 193 198 207 210 208 205 212 211 205 197 193 147 145 114 124 111 128 153 170 241 181 157 172 165 159 162 152 149
287 246 206 193 178 183 177 179 180 177 188 185 180 192 198 202 202 209 207 204 207 213 218 195 185 154 135 176 165 63 154 214 315 88 359 1 138 148 166 157 148 150 151
328 237 191 171 169 175 169 140 111 127 113 142 185 188 193 202 200 208 214 212 211 209 211 208 201 189 187 195 219 155 203 196 153 109 112 19 51 33 98 112 105 113 113
360 115 146 153 164 162 154 161 162 173 173 185 163 146 165 171 174 208 218 211 216 207 216 206 197 199 171 190 209 199 219 138 176 172 135 129 92 60 18 36 100 108 119
27 97 124 139 148 146 157 167 164 169 164 144 143 156 144 147 141 143 191 206 203 194 213 202 175 200 194 187 187 168 166 117 105 147 156 178 106 127 127 104 69 105 87
94 109 112 120 121 149 163 169 172 163 159 145 142 155 156 164 153 174 166 181 205 205 195 197 194 205 209 207 194 185 183 180 174 162 135 141 125 116 116 133 119 103 107